Location: Erlach
(47.0430°N, 7.0996°E)
Time: 03:05:40
(UTC+00:00)

Cosmos 1727 Rocket - Pass Details

Date: 07 June 2020
Orbit: 960 x 997 km, 82.9° (Epoch: 09 July)

Event Time Altitude Azimuth Distance (km) Brightness Sun altitude
Rises 02:40:39 0° 351° (N) 3,661 7.6 -8.1°
Reaches altitude 10° 02:43:10 10° 353° (N) 2,708 6.9 -7.8°
Maximum altitude 02:49:23 82° 82° (E) 976 4.1 -7.1°
Drops below altitude 10° 02:55:32 10° 170° (S) 2,690 6.0 -6.3°
Sets 02:58:02 0° 171° (S) 3,634 6.7 -6.0°
